Location: Forst
(46.9333°N, 15.4333°E)
Time: 06:09:54
(UTC+00:00)

Cosmos 1939 Rocket - Pass Details

Date: 01 December 2020
Orbit: 532 x 584 km, 97.4° (Epoch: 18 January)

Event Time Altitude Azimuth Distance (km) Brightness Sun altitude
Rises 15:56:51 0° 129° (SE) 2,682 6.1 -7.7°
Reaches altitude 10° 15:59:21 10° 113° (ESE) 1,802 5.0 -8.1°
Maximum altitude 16:02:13 20° 65° (ENE) 1,291 4.1 -8.5°
Drops below altitude 10° 16:05:08 10° 17° (NNE) 1,832 5.1 -9.0°
Sets 16:07:41 0° 1° (N) 2,741 6.1 -9.4°
